Weather History for KGWR - October, 2012

Change the Weather History Date:

Monday, October 8, 2012

  Actual Average (KP67) Record (KP67)
Temperature  
Mean Temperature 50 °F -  
Max Temperature 60 °F 66 °F 80 °F (1997)
Min Temperature 39 °F 38 °F 43 °F (1996)
Degree Days  
Heating Degree Days 16    
Moisture  
Dew Point 33 °F    
Average Humidity 56    
Maximum Humidity 81    
Minimum Humidity 41    
Precipitation  
Precipitation 0.00 in - - ()
Sea Level Pressure  
Sea Level Pressure 29.66 in    
Wind  
Wind Speed 13 mph (WSW)    
Max Wind Speed 31 mph    
Max Gust Speed 40 mph    
Visibility 10 miles    
Events      
Averages and records for this station are not official NWS values.
T = Trace of Precipitation, MM = Missing Value Source: NWS Daily Summary

Daily Weather History Graph

Daily Weather History Graph

Search for Another Location

Airport or City:

Trip Planner

Search our weather history database for the weather conditions in past years. The results will help you decide how hot, cold, wet, or windy it might be!

Date:

Astronomy

Oct. 08, 2012 Rise Set
Actual Time 7:38 AM CDT 6:56 PM CDT
Civil Twilight 7:08 AM CDT 7:26 PM CDT
Nautical Twilight 6:34 AM CDT 8:00 PM CDT
Astronomical Twilight 5:59 AM CDT 8:35 PM CDT
Moon No Moon Rise 3:06 PM CDT (10/8)
Length of Visible Light 12h 17m
Length of Day
11h 17m
Last Quarter, 46% of the Moon is Illuminated
Oct 8
Last Quarter
Oct 15
New
Oct 21
First Quarter
Oct 29
Full
Nov 6
Last Quarter

Hourly Weather History & Observations

Time (CDT) Temp. Windchill Dew Point Humidity Pressure Visibility Wind Dir Wind Speed Gust Speed Precip Events Conditions
12:15 AM 39.2 °F 33.6 °F 28.4 °F 65% 29.77 in 10.0 mi SSW 8.1 mph - 0.00 in   Partly Cloudy
12:35 AM 39.2 °F 33.0 °F 28.4 °F 65% 29.76 in 10.0 mi SSW 9.2 mph - 0.00 in   Scattered Clouds
12:55 AM 39.2 °F 33.0 °F 28.4 °F 65% 29.76 in 10.0 mi SSW 9.2 mph - 0.00 in   Scattered Clouds
1:15 AM 41.0 °F 35.8 °F 28.4 °F 61% 29.75 in 10.0 mi SW 8.1 mph - 0.00 in   Mostly Cloudy
1:35 AM 42.8 °F 36.2 °F 28.4 °F 57% 29.74 in 10.0 mi SW 12.7 mph - 0.00 in   Mostly Cloudy
1:55 AM 42.8 °F 37.0 °F 30.2 °F 61% 29.74 in 10.0 mi WSW 10.4 mph - 0.00 in   Scattered Clouds
2:15 AM 42.8 °F 37.5 °F 30.2 °F 61% 29.74 in 10.0 mi SW 9.2 mph - 0.00 in   Scattered Clouds
2:35 AM 41.0 °F 35.8 °F 30.2 °F 65% 29.74 in 10.0 mi SW 8.1 mph - 0.00 in   Clear
2:55 AM 41.0 °F 37.1 °F 32.0 °F 70% 29.73 in 10.0 mi SW 5.8 mph - 0.00 in   Clear
3:15 AM 41.0 °F 35.8 °F 32.0 °F 70% 29.72 in 10.0 mi SW 8.1 mph - 0.00 in   Scattered Clouds
3:35 AM 41.0 °F 37.1 °F 32.0 °F 70% 29.71 in 10.0 mi SW 5.8 mph - 0.00 in   Mostly Cloudy
3:55 AM 39.2 °F 35.0 °F 32.0 °F 75% 29.69 in 10.0 mi SSW 5.8 mph - 0.00 in   Overcast
4:15 AM 39.2 °F 34.2 °F 32.0 °F 75% 29.68 in 10.0 mi SW 6.9 mph - 0.00 in   Mostly Cloudy
4:35 AM 39.2 °F 34.2 °F 33.8 °F 81% 29.67 in 10.0 mi South 6.9 mph - 0.00 in   Mostly Cloudy
4:55 AM 42.8 °F 38.0 °F 35.6 °F 76% 29.66 in 10.0 mi SSW 8.1 mph - 0.00 in   Overcast
5:15 AM 42.8 °F 37.0 °F 33.8 °F 70% 29.66 in 10.0 mi SSW 10.4 mph - 0.00 in   Mostly Cloudy
5:35 AM 42.8 °F 36.6 °F 33.8 °F 70% 29.65 in 10.0 mi SSW 11.5 mph - 0.00 in   Mostly Cloudy
5:55 AM 42.8 °F 37.0 °F 33.8 °F 70% 29.64 in 10.0 mi SSW 10.4 mph - 0.00 in   Overcast
6:15 AM 44.6 °F 39.7 °F 33.8 °F 66% 29.63 in 10.0 mi SSW 9.2 mph - 0.00 in   Overcast
6:35 AM 44.6 °F 39.7 °F 32.0 °F 61% 29.62 in 10.0 mi SSW 9.2 mph - 0.00 in   Overcast
6:55 AM 44.6 °F 39.7 °F 32.0 °F 61% 29.61 in 10.0 mi South 9.2 mph - 0.00 in   Mostly Cloudy
7:15 AM 44.6 °F 39.2 °F 32.0 °F 61% 29.60 in 10.0 mi South 10.4 mph - 0.00 in   Partly Cloudy
7:35 AM 44.6 °F 39.2 °F 32.0 °F 61% 29.59 in 10.0 mi South 10.4 mph - 0.00 in   Scattered Clouds
8:15 AM 46.4 °F 40.4 °F 32.0 °F 57% 29.57 in 10.0 mi SSW 13.8 mph - 0.00 in   Mostly Cloudy
8:55 AM 48.2 °F - 32.0 °F 54% 29.56 in 10.0 mi SW 17.3 mph 21.9 mph 0.00 in   Mostly Cloudy
9:15 AM 48.2 °F - 32.0 °F 54% 29.56 in 10.0 mi SW 17.3 mph - 0.00 in   Scattered Clouds
9:35 AM 48.2 °F - 32.0 °F 54% 29.55 in 10.0 mi SW 19.6 mph - 0.00 in   Mostly Cloudy
9:55 AM 48.2 °F - 32.0 °F 54% 29.55 in 10.0 mi SW 18.4 mph - 0.00 in   Mostly Cloudy
10:15 AM 48.2 °F - 32.0 °F 54% 29.55 in 10.0 mi SW 13.8 mph - 0.00 in   Mostly Cloudy
10:35 AM 50.0 °F - 32.0 °F 50% 29.55 in 10.0 mi WSW 15.0 mph 21.9 mph 0.00 in   Scattered Clouds
10:55 AM 51.8 °F - 33.8 °F 50% 29.55 in 10.0 mi WSW 15.0 mph 20.7 mph 0.00 in   Scattered Clouds
11:15 AM 53.6 °F - 37.4 °F 54% 29.55 in 10.0 mi West 18.4 mph 23.0 mph 0.00 in   Scattered Clouds
11:35 AM 53.6 °F - 39.2 °F 58% 29.56 in 10.0 mi West 19.6 mph 26.5 mph 0.00 in   Mostly Cloudy
12:15 PM 57.2 °F - 39.2 °F 51% 29.57 in 10.0 mi WNW 25.3 mph 33.4 mph 0.00 in   Clear
12:35 PM 57.2 °F - 39.2 °F 51% 29.57 in 10.0 mi WNW 27.6 mph 32.2 mph 0.00 in   Partly Cloudy
12:55 PM 57.2 °F - 37.4 °F 48% 29.57 in 10.0 mi WNW 25.3 mph 33.4 mph 0.00 in   Clear
1:15 PM 60.8 °F - 39.2 °F 45% 29.58 in 10.0 mi WNW 26.5 mph 36.8 mph 0.00 in   Clear
1:35 PM 59.0 °F - 39.2 °F 48% 29.59 in 10.0 mi WNW 27.6 mph 38.0 mph 0.00 in   Clear
1:55 PM 57.2 °F - 37.4 °F 48% 29.60 in 10.0 mi WNW 26.5 mph 34.5 mph 0.00 in   Clear
2:15 PM 57.2 °F - 37.4 °F 48% 29.60 in 10.0 mi WNW 28.8 mph 38.0 mph 0.00 in   Partly Cloudy
2:35 PM 57.2 °F - 37.4 °F 48% 29.61 in 10.0 mi NW 27.6 mph 35.7 mph 0.00 in   Partly Cloudy
2:55 PM 57.2 °F - 37.4 °F 48% 29.62 in 10.0 mi NW 31.1 mph 40.3 mph 0.00 in   Partly Cloudy
3:15 PM 57.2 °F - 35.6 °F 44% 29.63 in 10.0 mi NW 28.8 mph 35.7 mph 0.00 in   Partly Cloudy
3:35 PM 57.2 °F - 35.6 °F 44% 29.64 in 10.0 mi WNW 23.0 mph 32.2 mph 0.00 in   Scattered Clouds
3:55 PM 57.2 °F - 35.6 °F 44% 29.65 in 10.0 mi NW 28.8 mph 33.4 mph 0.00 in   Mostly Cloudy
4:15 PM 57.2 °F - 33.8 °F 41% 29.65 in 10.0 mi WNW 24.2 mph 32.2 mph 0.00 in   Mostly Cloudy
4:35 PM 55.4 °F - 33.8 °F 44% 29.66 in 10.0 mi WNW 19.6 mph 31.1 mph 0.00 in   Scattered Clouds
5:15 PM 55.4 °F - 33.8 °F 44% 29.66 in 10.0 mi WNW 17.3 mph - 0.00 in   Partly Cloudy
5:35 PM 55.4 °F - 33.8 °F 44% 29.66 in 10.0 mi WNW 17.3 mph 20.7 mph 0.00 in   Partly Cloudy
5:55 PM 55.4 °F - 33.8 °F 44% 29.67 in 10.0 mi WNW 16.1 mph 21.9 mph 0.00 in   Scattered Clouds
6:15 PM 55.4 °F - 33.8 °F 44% 29.68 in 10.0 mi WNW 13.8 mph - 0.00 in   Scattered Clouds
6:35 PM 55.4 °F - 32.0 °F 41% 29.68 in 10.0 mi WNW 16.1 mph 21.9 mph 0.00 in   Mostly Cloudy
6:55 PM 55.4 °F - 32.0 °F 41% 29.69 in 10.0 mi WNW 15.0 mph 19.6 mph 0.00 in   Overcast
7:15 PM 53.6 °F - 32.0 °F 44% 29.70 in 10.0 mi WNW 15.0 mph - 0.00 in   Mostly Cloudy
7:35 PM 51.8 °F - 32.0 °F 47% 29.70 in 10.0 mi WNW 10.4 mph - 0.00 in   Partly Cloudy
7:55 PM 50.0 °F - 30.2 °F 47% 29.71 in 10.0 mi West 8.1 mph - 0.00 in   Clear
8:15 PM 46.4 °F 42.9 °F 30.2 °F 53% 29.71 in 10.0 mi West 6.9 mph - 0.00 in   Partly Cloudy
8:35 PM 46.4 °F 42.4 °F 30.2 °F 53% 29.71 in 10.0 mi West 8.1 mph - 0.00 in   Scattered Clouds
8:55 PM 44.6 °F 40.2 °F 30.2 °F 57% 29.72 in 10.0 mi West 8.1 mph - 0.00 in   Scattered Clouds
9:15 PM 44.6 °F 39.2 °F 30.2 °F 57% 29.72 in 10.0 mi West 10.4 mph - 0.00 in   Clear
9:35 PM 44.6 °F 40.2 °F 30.2 °F 57% 29.72 in 10.0 mi West 8.1 mph - 0.00 in   Clear
9:55 PM 44.6 °F 38.8 °F 30.2 °F 57% 29.73 in 10.0 mi West 11.5 mph - 0.00 in   Clear
10:15 PM 44.6 °F 38.8 °F 30.2 °F 57% 29.73 in 10.0 mi West 11.5 mph - 0.00 in   Clear
10:35 PM 42.8 °F 37.0 °F 30.2 °F 61% 29.74 in 10.0 mi West 10.4 mph - 0.00 in   Clear
10:55 PM 42.8 °F 37.0 °F 30.2 °F 61% 29.74 in 10.0 mi West 10.4 mph - 0.00 in   Clear
11:15 PM 42.8 °F 37.5 °F 30.2 °F 61% 29.74 in 10.0 mi West 9.2 mph - 0.00 in   Clear
11:35 PM 42.8 °F 37.0 °F 30.2 °F 61% 29.74 in 10.0 mi West 10.4 mph - 0.00 in   Clear